Location: *
(51.1248°S, 108.4023°W)
Time: 19:30:34
(UTC+00:00)

USA 281 - Pass Details

Date: 29 October 2021
Orbit: 1078 x 1081 km, 106.0° (Epoch: 25 November)

Event Time Altitude Azimuth Distance (km) Brightness Sun altitude
Exits shadow 04:25:43 - 346° (NNW) 3,257 5.4 -17.4°
Reaches altitude 10° 04:26:46 10° 341° (NNW) 2,927 5.2 -17.5°
Maximum altitude 04:32:21 29° 282° (WNW) 1,885 4.7 -18.1°
Drops below altitude 10° 04:38:01 10° 224° (SW) 2,956 6.8 -18.6°
Sets 04:40:58 0° 212° (SSW) 3,919 7.8 -18.9°
